www.pogodaiklimat.ru

Погода и климат >> Архив погоды >> Мьянма >> Минбу


ПОГОДА в Минбу

  • Прогноз погоды в Минбу
  • Монитор погоды в Минбу

АРХИВ ПОГОДЫ в Минбу

Время (UTC), дата Ветер
(напр.,м/с)
 
Видим.   Явления Облачность Т
(С)
Тd
(С)
f
(%)
Тe
(С)
Тes
(С)
Комфортность P
(гПа)
Po
(гПа)
Тmin
(С)
Tmax
(С)
R
(мм)
R24
(мм)
S
(см)
00 17.01 ЮЗ 1 4000 м ясно +15.0 +13.4 90 +15 +15 1011.9 1012.0 +12.6
03 17.01 ЮЗ 1 5000 м 4/3 300 м
[Cu Sc Ci fib]
+17.1 +13.5 79 +18 +23 1015.1 1015.0
06 17.01 ЮВ 1 10 км ясно +26.4 +21.5 74 +34 +49 очень
душно
1013.3 1013.0
09 17.01 ЮВ 1 10 км ясно +29.0 +21.5 64 +37 +42 очень
душно
1009.5 1010.0
12 17.01 штиль 0 5000 м 4/0
[Cs]
+25.0 +21.9 83 +32 +32 очень
душно
1009.5 1010.0 +30.3
15 17.01 ЮВ 1 4000 м ясно +21.8 +20.5 92 +28 +28 душно 1010.0 1010.0
00 18.01 ЮЗ 1 4000 м 6/4 300 м
[Cu Sc Cs]
+13.0 +11.3 89 +13 +13 1011.8 1012.0 +11.0
03 18.01 ЮЗ 1 5000 м ясно +15.7 +12.3 80 +16 +24 1014.3 1014.0
06 18.01 СЗ 1 10 км ясно +27.0 +21.1 70 +34 +49 очень
душно
1013.7 1014.0
09 18.01 ЮВ 1 10 км ясно +28.1 +20.3 63 +35 +40 очень
душно
1010.2 1010.0
12 18.01 штиль 0 5000 м ясно +25.0 +20.5 76 +31 +31 очень
душно
1010.1 1010.0 +30.3
15 18.01 ЮЗ 1 4000 м ясно +22.1 +18.5 80 +27 +27 душно 1010.5 1011.0
00 19.01 ЮВ 1 4000 м ясно +13.6 +12.4 92 +14 +14 1010.3 1010.0 +11.5
03 19.01 ЮВ 2 8000 м ясно +18.3 +12.9 71 +19 +26 1012.4 1012.0
06 19.01 ЮВ 1 10 км ясно +26.2 +21.5 75 +33 +48 очень
душно
1012.9 1013.0
09 19.01 СЗ 1 10 км ясно +29.6 +22.3 65 +39 +44 очень
душно
1011.3 1011.0
12 19.01 ЮВ 1 5000 м ясно +25.0 +21.9 83 +32 +32 очень
душно
1008.6 1009.0 +30.5
15 19.01 Ю 1 4000 м ясно +21.8 +17.3 76 +26 +26 душно 1009.5 1010.0
03 20.01 ЮВ 2 8000 м ясно +17.6 +10.8 64 +18 +25 1013.6 1014.0
06 20.01 ЮВ 1 10 км ясно +25.0 +21.9 83 +32 +47 очень
душно
1012.4 1012.0
09 20.01 ЮЗ 2 10 км ясно +28.8 +23.0 71 +39 +43 очень
душно
1011.9 1012.0
12 20.01 ЮВ 1 5000 м 5/3 300 м
[Cu med, cong Cs]
+25.0 +21.9 83 +32 +32 очень
душно
1008.0 1008.0 +29.8
15 20.01 ЮВ 1 4000 м ясно +22.0 +18.5 81 +27 +27 душно 1008.3 1008.0
00 21.01 В 1 4000 м ясно +12.6 +11.3 92 +13 +13 1012.6 1013.0 +9.3
03 21.01 ЮВ 1 5000 м ясно +15.2 +11.1 77 +16 +24 1013.9 1014.0
09 21.01 ЮВ 1 10 км ясно +29.1 +19.6 57 +35 +41 очень
душно
1011.2 1011.0
12 21.01 штиль 0 5000 м ясно +25.0 +20.5 76 +31 +31 очень
душно
1009.8 1010.0 +30.6
15 21.01 ЮВ 1 4000 м ясно +22.2 +18.5 80 +27 +27 душно 1010.3 1010.0
00 22.01 ЮВ 1 4000 м 4/4 300 м
[Cu Sc]
+14.0 +12.4 90 +14 +14 1012.5 1013.0 +11.3
03 22.01 ЮВ 1 6000 м 4/3 300 м
[Cu Sc Ci fib]
+15.6 +13.5 87 +16 +22 1014.7 1015.0
06 22.01 ЮЗ 1 10 км 4/3 300 м
[Cu Sc Ci fib]
+28.0 +22.0 70 +36 +47 очень
душно
1015.5 1016.0
09 22.01 ЮВ 1 10 км 1/0
[Ci fib]
+30.0 +20.7 57 +37 +42 очень
душно
1010.6 1011.0
12 22.01 штиль 0 5000 м 4/0
[Cs]
+25.4 +20.5 74 +31 +31 очень
душно
1010.4 1010.0 +31.3
15 22.01 ЮВ 1 4000 м ясно +21.6 +18.5 83 +26 +26 душно 1011.0 1011.0
00 23.01 ЮВ 1 4000 м ясно +14.3 +12.4 88 +15 +15 1012.6 1013.0 +12.0
03 23.01 ЮЗ 1 8000 м ясно +16.2 +12.3 78 +17 +25 1014.6 1015.0
06 23.01 ЮВ 1 10 км ясно +26.8 +21.1 71 +34 +49 очень
душно
1013.4 1013.0
09 23.01 ЮЗ 2 10 км ясно +29.8 +22.3 64 +39 +43 очень
душно
1011.9 1012.0
12 23.01 ЮВ 1 5000 м ясно +26.0 +21.5 76 +33 +33 очень
душно
1009.7 1010.0 +31.2

 

Местоположение метеостанции Минбу (Мьянма): широта 20.17 долгота 94.88 высота над уровнем моря 51 м.

В архиве по умолчанию представлена погода в Минбу за последнюю неделю. Архивные данные за месяц целиком и за предыдущие месяцы, начиная с января 2011 года, Вы можете получить, выбрав интересующий диапазон дат из раскрывающегося списка и нажав кнопку "Ввод!".


*Определитесь, кто Вы:
робот инопланетянин человек

Внимание! Время в таблицах - всемирное. Для получения местного времени необходимо прибавить поправку, которая равна 6.5 ч.

Смотрите также архив погоды в соседних городах и на ближайших метеорологических станциях:

Погода в Магуэе (Мьянма) (8 км)
Погода в Чау (Мьянма) (79 км)
Погода в Ньянг-У (Мьянма) (115 км)
Погода в Мейтхиле (Мьянма) (123 км)
Погода в Пьинмане (Мьянма) (149 км)
Погода в Проме (Мьянма) (156 км)
Погода в Кяокпю (Мьянма) (162 км)
Погода в Миндате (Мьянма) (166 км)
Погода в Манаунге (Мьянма) (190 км)
Погода в Тандве (Мьянма) (197 км)

Пояснения к столбцам:

Ветер - указаны скорость ветра в м/с - средняя за 10 мин, порывы в срок и между сроками (в фигурных скобках) и направление, откуда дует ветер: С - северный, СВ - северо-восточный, В - восточный, ЮВ - юго-восточный, Ю - южный, ЮЗ - юго-западный, З - западный, СЗ - северо-западный.
Видимость - горизонтальная дальность видимости в метрах или километрах. При видимости от 1 до 10 км при отсутствии осадков обычно наблюдается дымка, при ухудшении видимости до 1 км и менее - туман. В сухую погоду видимость может ухудшаться дымом, пылью или мглою.
Явления - указаны атмосферные явления, наблюдавшиеся в срок или в последний час перед сроком; фигурными скобками обозначены явления, наблюдавшиеся между сроками (за 1-3 часа до срока); квадратными скобками обозначены град или гололедные отложения с указанием их диаметра в мм.
Облачность - указаны через наклонную черту общая и нижняя облачность в баллах и высота нижней границы облаков в метрах; квадратными скобками обозначены формы облаков: Ci - перистые, Cs - перисто-слоистые, Cc - перисто-кучевые, Ac - высококучевые, As - высокослоистые, Sc - слоисто-кучевые, Ns - слоисто-дождевые, Cu - кучевые, Cb - кучево-дождевые. Подробнее классификацию облаков см. в Атласе облаков (PDF).
T - Температура воздуха - температура, измеренная на высоте 2 м над землей.
Td - Температура точки росы - температура, при понижении до которой содержащийся в воздухе водяной пар достигнет насыщения.
f - Относительная влажность воздуха - влажноcть воздуха, измеренная на высоте 2 м над землей.
Te - Эффективная температура - температура, которую ощущает одетый по сезону человек в тени. Характеристика душности погоды. При расчете учитывается влияние влажности воздуха и скорости ветра на теплоощущения человека.
Tes - Эффективная температура на солнце - температура, которую ощущает человек, с поправкой на солнечный нагрев. Характеристика знойности погоды. Зависит от высоты солнца над горизонтом, облачности и скорости ветра. Ночью, в пасмурную погоду, а также при ветре 12 м/с и более поправка равна нулю.
P - Атмосферное давление - приведенное к уровню моря атмосферное давление.
Po - Атмосферное давление - измеренное на уровне метеостанции атмосферное давление.
Tmin - Минимальная температура - минимум температуры воздуха на высоте 2 м над землей.
Tmax - Максимальная температура - максимум температуры воздуха на высоте 2 м над землей.
R - Количество осадков - Количество выпавших осадков за период времени, мм. При наведении курсора мыши на число - период времени, за который выпало указанное количество осадков.
R24 - Количество осадков - Количество выпавших осадков за 24 часа, мм.
S - Снежный покров - Высота снежного покрова, см. При наведении курсора мыши на число - состояние снежного покрова и степень покрытия местности в баллах.